Vorticity
nan nan nan nan nan nan nan nan nan nan nan nan nan nan nan nan nan nan nan nan nan nan nan nan nan nan nan nan nan nan nan nan nan nan nan nan nan nan nan nan nan nan nan nan
nan 8 12 12 2 6 7 18 11 11 9 5 8 15 17 6 8 9 6 7 6 8 10 6 6 8 9 7 6 6 10 8 5 6 6 8 9 8 8 12 12 7 8 nan
nan 9 13 5 4 7 13 11 12 14 10 5 8 10 16 11 8 9 11 9 7 8 9 7 6 8 9 8 5 6 9 7 5 6 5 6 7 9 9 10 11 9 8 nan
nan 9 4 7 10 9 9 7 7 9 13 12 4 16 13 18 8 6 12 16 9 14 15 10 4 6 8 9 7 6 8 7 5 7 7 6 8 7 7 11 11 8 8 nan
nan 11 11 6 6 13 4 3 6 7 6 9 5 16 18 13 4 7 8 11 15 9 1 10 23 15 9 10 7 6 6 7 6 4 6 7 6 7 8 10 11 8 9 nan
nan 5 9 9 6 5 6 7 10 13 10 9 16 4 16 19 9 14 8 2 9 7 1 4 4 15 18 19 7 8 7 5 6 5 4 6 7 6 6 7 9 10 8 nan
nan 7 7 7 12 11 7 7 12 11 15 10 9 8 16 19 18 14 10 10 8 7 4 9 8 5 2 14 18 14 7 6 8 6 4 6 6 7 7 7 8 10 9 nan
nan 12 11 8 8 11 10 15 7 5 8 10 14 15 16 11 7 12 14 11 14 14 8 3 17 13 7 -3 7 22 19 9 6 7 7 6 4 5 8 8 9 10 11 nan
nan 11 6 9 8 7 11 11 9 8 8 12 10 5 11 9 8 7 7 8 9 9 13 23 21 14 13 9 8 3 19 21 14 9 5 7 8 5 4 9 7 8 10 nan
nan 13 9 4 6 8 9 2 9 12 14 9 13 12 10 5 6 5 4 5 7 9 9 8 10 12 13 14 14 3 7 19 18 12 9 12 10 7 5 4 7 7 8 nan
nan 10 9 9 11 10 7 11 13 16 6 7 7 10 15 11 7 5 5 7 7 9 8 9 10 10 7 7 10 12 7 7 10 23 21 7 7 9 8 6 5 7 7 nan
nan 10 12 5 11 14 9 11 11 6 7 12 10 7 7 7 13 12 11 8 7 8 8 8 9 8 7 7 7 8 10 9 7 22 30 14 9 8 8 8 7 6 8 nan
nan 9 10 11 6 7 12 8 7 9 14 9 9 7 6 6 9 8 10 11 11 8 9 9 8 7 7 8 6 5 8 11 10 6 19 26 16 9 8 8 9 7 6 nan
nan 11 12 10 4 3 3 4 9 12 8 13 5 4 3 12 7 5 8 10 9 7 6 9 11 9 7 8 7 8 7 8 9 7 6 18 23 18 10 9 9 9 7 nan
nan 7 5 7 8 8 9 8 7 8 8 8 8 11 7 8 7 7 5 5 6 6 9 12 11 8 7 6 8 8 8 8 8 9 10 8 11 16 19 14 11 10 9 nan
nan 8 9 9 9 9 11 13 20 15 14 9 14 8 8 9 7 7 8 9 8 9 9 8 7 7 9 9 8 8 8 8 7 8 10 10 10 10 13 18 15 11 11 nan
nan 9 11 8 7 13 15 15 16 16 18 17 14 7 5 6 7 10 9 5 6 12 12 9 8 8 8 10 10 9 10 7 6 9 10 10 10 10 9 19 20 12 9 nan
nan 12 10 9 10 9 5 10 16 9 5 12 10 11 10 7 7 9 8 4 5 6 10 12 12 10 8 8 9 9 9 8 7 9 11 10 10 10 11 12 16 17 16 nan
nan 12 13 13 11 9 9 7 11 10 0 3 8 8 9 11 13 5 -0 7 10 11 12 11 8 10 12 11 12 10 7 8 7 8 10 10 10 10 11 11 12 16 15 nan
nan 9 6 5 11 14 6 5 8 12 5 4 9 7 9 13 14 3 1 9 13 15 14 13 15 12 10 15 14 11 11 10 8 7 8 9 8 8 12 12 13 13 11 nan
nan 10 9 9 9 7 4 7 14 13 9 7 11 10 12 13 8 2 6 10 11 11 12 17 20 16 11 12 12 10 10 10 8 8 9 8 9 13 12 10 16 15 12 nan
nan 9 7 12 14 7 11 18 19 13 9 9 8 10 12 9 8 10 9 10 10 8 9 14 16 13 10 7 9 9 9 7 8 10 10 9 10 12 12 14 15 16 10 nan
nan 13 11 11 11 8 11 14 14 14 10 10 11 10 9 7 9 11 12 12 12 13 13 12 10 10 10 8 8 9 10 10 10 10 10 11 12 11 15 18 18 15 11 nan
nan 13 12 9 9 11 10 7 10 11 11 10 10 9 8 9 9 11 12 11 12 11 11 11 11 11 9 10 10 11 11 12 11 11 12 12 13 18 19 14 18 18 16 nan
nan 11 9 5 4 4 8 22 15 7 9 8 8 8 8 9 8 8 8 7 8 8 9 10 12 12 10 9 10 11 12 16 17 16 17 18 16 17 14 10 13 17 15 nan
nan nan nan nan nan nan nan nan nan nan nan nan nan nan nan nan nan nan nan nan nan nan nan nan nan nan nan nan nan nan nan nan nan nan nan nan nan nan nan nan nan nan nan nan
CAPE
0 0 0 0 6 15 6 0 9 174 0 0 156 397 356 148 14 0 0 0 0 0 0 0 0 0 10 138 32 94 26 158 204 179 571 451 410 172 173 301 665 912 994 1020
0 0 0 0 0 0 0 0 0 0 0 0 0 0 522 368 329 53 2 0 0 0 0 0 0 0 0 24 110 116 502 315 387 49 119 403 326 124 106 412 686 888 1145 750
0 0 0 0 0 0 0 0 0 0 0 0 0 0 74 464 389 244 52 6 0 0 0 0 0 0 0 54 36 353 520 297 302 202 85 249 459 630 544 798 972 890 1015 885
0 0 0 0 0 0 0 0 0 0 0 0 0 0 0 347 357 317 254 13 0 0 0 0 0 0 0 133 167 280 590 520 479 225 209 266 403 296 409 828 848 1087 639 961
0 0 0 0 0 0 0 0 0 0 0 0 0 0 0 338 296 268 248 419 291 106 342 0 5 3 18 56 265 378 678 784 375 449 795 347 535 344 384 594 734 440 1006 772
0 0 0 0 0 0 0 0 0 0 0 0 0 0 0 263 406 376 435 317 454 461 383 16 0 359 127 16 237 565 777 1009 565 326 525 856 661 700 593 813 429 874 589 1051
0 0 0 0 0 0 0 0 0 0 0 0 0 0 115 396 353 346 337 286 318 642 152 0 0 719 734 313 92 803 779 1188 1020 980 589 648 939 824 849 1099 508 1090 756 765
0 0 0 0 0 0 0 0 0 0 0 0 0 31 68 504 380 341 252 163 328 273 8 1 159 439 565 639 432 500 931 813 1366 1484 1088 594 1009 1359 1266 647 1479 973 1011 794
0 0 0 0 0 0 0 0 0 0 0 0 6 101 58 4 0 0 0 0 0 0 0 0 364 342 516 589 260 79 219 1134 1128 1108 1558 1219 1075 1068 1637 1675 1339 1715 851 605
0 0 0 0 0 0 0 0 0 0 0 0 2 70 135 76 0 0 0 0 0 0 0 0 0 0 0 0 80 165 307 975 1330 1502 1274 1706 1454 1055 1237 1615 1603 1509 1713 798
0 0 0 0 0 0 0 0 0 0 0 0 0 46 38 4 0 0 0 0 0 0 0 0 0 0 18 22 19 112 161 282 355 1038 1590 1531 1744 1579 1105 1201 1512 1481 1396 1494
0 0 0 0 0 0 0 0 0 0 0 0 0 0 0 0 0 0 0 0 0 0 0 0 0 0 0 0 0 0 87 117 115 413 956 1555 1635 1905 1785 1528 1197 1382 1508 1623
0 0 0 0 0 0 0 0 0 0 0 0 0 0 0 0 0 0 0 0 0 0 0 0 0 0 0 0 0 0 0 0 160 146 337 1660 1786 1824 2094 2007 1710 1338 1744 1552
0 0 0 0 0 0 0 0 0 0 0 0 0 0 0 0 0 0 0 0 0 0 0 0 0 0 0 0 0 0 0 0 0 115 190 478 1691 1936 2005 2074 2124 1836 1348 1655
0 0 0 0 0 0 0 0 0 0 0 0 0 0 0 0 0 0 0 0 0 0 0 0 0 0 0 0 0 0 0 0 0 0 108 182 904 1251 1741 1968 1968 2106 1974 1377
0 0 0 0 0 0 0 0 0 0 0 0 0 0 0 0 0 0 0 0 0 0 0 0 0 0 0 0 0 0 0 0 0 0 0 133 253 828 1342 1702 1988 1846 2137 1850
0 0 0 0 0 0 0 0 0 0 0 0 0 0 0 0 0 0 0 0 0 0 0 0 0 0 0 0 0 0 0 0 0 0 0 0 147 354 1038 1338 1824 1775 1705 1662
0 0 0 0 0 0 0 0 0 0 0 0 0 0 0 0 0 0 0 0 0 0 0 0 0 0 0 0 2 0 0 0 0 0 0 0 0 280 912 1182 1328 1496 1483 826
0 0 0 0 0 0 0 0 0 0 0 0 0 0 0 0 0 0 0 0 0 0 0 0 0 0 0 0 0 0 0 0 0 0 0 0 1 234 713 882 911 1103 1037 968
0 0 0 0 0 0 0 0 0 0 0 0 0 0 0 0 0 0 0 0 0 0 0 0 0 0 0 2 41 4 0 0 0 0 0 0 0 0 400 697 941 1056 1055 897
0 0 0 0 0 20 0 0 0 0 0 0 0 0 0 0 0 0 0 0 0 0 0 0 0 1 11 0 0 0 0 0 0 0 0 0 0 3 84 267 900 1178 1010 779
2 0 0 0 0 21 0 0 0 0 0 0 1 0 0 0 0 0 0 0 0 0 1 0 0 0 0 0 0 0 0 0 0 0 0 0 0 5 57 443 864 1079 893 788
0 0 0 0 0 14 2 88 53 2 0 10 0 0 0 0 0 1 4 4 8 10 9 5 1 0 0 0 0 0 0 0 1 4 3 1 1 5 83 701 1031 944 913 874
11 10 0 1 12 0 1 18 89 20 30 0 0 0 0 0 1 4 4 5 7 9 8 5 5 3 0 0 0 0 0 1 2 1 0 0 3 19 774 576 635 1051 813 641
0 8 25 19 0 0 14 2 367 96 14 0 0 0 0 0 0 0 0 0 0 0 0 2 7 10 5 0 0 0 0 1 2 4 3 2 9 120 0 2 1 0 1 152
13 132 85 73 20 14 136 81 158 44 0 0 0 0 0 0 0 0 0 0 0 0 0 0 1 2 2 7 4 0 0 4 7 7 4 2 152 2 3 2 0 1 0 1